SWR193T LSZH-EKCH

Flight info

Callsign SWR193T
Flight time N/A
Altitude 34000
Route DEGES3W DEGES Z1 ETAGO DCT HAREM/N0448F350 DCT LOHRE DCT BERXO DCT MAKEL N851 GESKA Z711 MONAK MONAK5A
Aircraft A21N/M-SDE2E3FGHIRWXY/LB1

Departure

Time 2026-04-26 10:31
Airport Zürich Airport (LSZH)

Arrival

Time N/A
Airport Copenhagen Kastrup Airport (EKCH)
Time Latitude Longitude Altitude Speed Heading
2026-04-26 10:18 47.45580 8.55744 1398 ft 0 kts
2026-04-26 10:27 47.45585 8.55745 1398 ft 1 kts 11°
2026-04-26 10:27 47.45598 8.55752 1398 ft 2 kts 26°
2026-04-26 10:27 47.45616 8.55768 1398 ft 4 kts 31°
2026-04-26 10:27 47.45639 8.55829 1398 ft 9 kts 85°
2026-04-26 10:28 47.45637 8.55932 1400 ft 9 kts 95°
2026-04-26 10:28 47.45630 8.56018 1402 ft 7 kts 97°
2026-04-26 10:28 47.45624 8.56091 1404 ft 7 kts 98°
2026-04-26 10:28 47.45616 8.56177 1406 ft 12 kts 96°
2026-04-26 10:29 47.45605 8.56321 1409 ft 15 kts 96°
2026-04-26 10:29 47.45593 8.56479 1412 ft 15 kts 97°
2026-04-26 10:29 47.45585 8.56627 1414 ft 14 kts 94°
2026-04-26 10:29 47.45578 8.56765 1416 ft 13 kts 96°
2026-04-26 10:30 47.45569 8.56893 1418 ft 11 kts 96°
2026-04-26 10:30 47.45586 8.56994 1419 ft 10 kts 39°
2026-04-26 10:30 47.45653 8.56973 1417 ft 14 kts 302°
2026-04-26 10:30 47.45679 8.56725 1412 ft 52 kts 278°
2026-04-26 10:31 47.45745 8.55776 1397 ft 129 kts 276°
2026-04-26 10:31 47.45877 8.54193 1564 ft 170 kts 279°
2026-04-26 10:31 47.46052 8.52452 2190 ft 173 kts 280°
2026-04-26 10:31 47.46173 8.50691 2852 ft 173 kts 277°
2026-04-26 10:32 47.46267 8.48930 3275 ft 178 kts 275°
2026-04-26 10:32 47.45982 8.47094 3507 ft 196 kts 233°
2026-04-26 10:32 47.44868 8.45830 3783 ft 212 kts 208°
2026-04-26 10:32 47.43617 8.44533 4112 ft 230 kts 231°
2026-04-26 10:33 47.42892 8.42386 4472 ft 245 kts 259°
2026-04-26 10:33 47.42619 8.39842 4945 ft 257 kts 264°
2026-04-26 10:33 47.42356 8.37215 5607 ft 261 kts 261°
2026-04-26 10:33 47.42007 8.34575 6315 ft 264 kts 258°
2026-04-26 10:34 47.41598 8.31972 6987 ft 266 kts 255°
2026-04-26 10:34 47.40809 8.29530 7611 ft 268 kts 226°
2026-04-26 10:34 47.39235 8.28122 8264 ft 268 kts 191°
2026-04-26 10:34 47.37420 8.28264 8872 ft 267 kts 156°
2026-04-26 10:35 47.35968 8.29902 9443 ft 266 kts 121°
2026-04-26 10:35 47.35412 8.32434 9985 ft 266 kts 87°
2026-04-26 10:35 47.35900 8.35028 10562 ft 267 kts 59°
2026-04-26 10:35 47.36978 8.37250 11126 ft 270 kts 50°
2026-04-26 10:36 47.38176 8.39409 11674 ft 273 kts 50°
2026-04-26 10:36 47.39361 8.41613 12228 ft 277 kts 51°
2026-04-26 10:36 47.40527 8.43885 12773 ft 280 kts 52°
2026-04-26 10:36 47.41670 8.46185 13301 ft 283 kts 53°
2026-04-26 10:37 47.42834 8.48569 13829 ft 286 kts 53°
2026-04-26 10:37 47.43994 8.50965 14352 ft 289 kts 53°
2026-04-26 10:37 47.45161 8.53388 14873 ft 291 kts 53°
2026-04-26 10:37 47.46289 8.55886 15350 ft 296 kts 62°
2026-04-26 10:38 47.46859 8.58831 15578 ft 310 kts 85°
2026-04-26 10:38 47.46661 8.62092 15824 ft 323 kts 100°
2026-04-26 10:38 47.46358 8.65395 16046 ft 334 kts 90°
2026-04-26 10:38 47.46363 8.68897 16282 ft 346 kts 89°
2026-04-26 10:39 47.46418 8.72550 16507 ft 358 kts 88°
2026-04-26 10:39 47.46520 8.76242 16721 ft 369 kts 86°
2026-04-26 10:39 47.46584 8.80123 16931 ft 381 kts 91°
2026-04-26 10:39 47.46392 8.84049 17162 ft 391 kts 97°
2026-04-26 10:40 47.45918 8.88043 17557 ft 395 kts 101°
2026-04-26 10:40 47.45347 8.91994 17949 ft 398 kts 102°
2026-04-26 10:40 47.44756 8.96015 18421 ft 401 kts 102°
2026-04-26 10:40 47.44168 9.00063 18841 ft 403 kts 102°
2026-04-26 10:41 47.43591 9.04063 19287 ft 405 kts 102°
2026-04-26 10:41 47.43004 9.08140 19726 ft 407 kts 101°
2026-04-26 10:41 47.42753 9.12081 20071 ft 409 kts 85°
2026-04-26 10:41 47.43443 9.16113 20463 ft 410 kts 64°
2026-04-26 10:42 47.45026 9.19593 20826 ft 409 kts 45°
2026-04-26 10:42 47.47287 9.22087 21166 ft 409 kts 25°
2026-04-26 10:42 47.49987 9.23413 21529 ft 408 kts 11°
2026-04-26 10:42 47.52774 9.24351 21906 ft 411 kts 11°
2026-04-26 10:43 47.55548 9.25284 22238 ft 414 kts 11°
2026-04-26 10:43 47.58360 9.26242 22581 ft 416 kts 11°
2026-04-26 10:43 47.61196 9.27221 22921 ft 419 kts 11°
2026-04-26 10:43 47.64021 9.28205 23241 ft 421 kts 11°
2026-04-26 10:44 47.66895 9.29212 23565 ft 424 kts 11°
2026-04-26 10:44 47.69754 9.30218 23875 ft 426 kts 11°
2026-04-26 10:44 47.72649 9.31238 24185 ft 428 kts 11°
2026-04-26 10:44 47.75545 9.32263 24509 ft 430 kts 11°
2026-04-26 10:45 47.78468 9.33298 24829 ft 432 kts 11°
2026-04-26 10:45 47.81393 9.34336 25135 ft 434 kts 11°
2026-04-26 10:45 47.84345 9.35386 25427 ft 436 kts 11°